Regional Weather Roundup
Issued by NWS Newport/Morehead, NC

Current Version | Previous Version | Graphics & Text | Print | Product List | Glossary Off
Versions: 1 2 3 4 5 6 7 8 9 10 11 12 13 14 15 16 17 18 19 20 21 22 23 24 25 26 27 28 29 30 31 32 33 34 35 36 37 38 39 40 41 42 43 44 45 46 47 48

000
ASUS42 KMHX 200810
RWRMHX
WEATHER ROUNDUP FOR EASTERN NORTH CAROLINA
NATIONAL WEATHER SERVICE NEWPORT/MOREHEAD CITY NC
400 AM EDT SUN APR 20 2014

NOTE: "FAIR" INDICATES FEW OR NO CLOUDS BELOW 12,000 FEET
WITH NO SIGNIFICANT WEATHER AND/OR OBSTRUCTIONS TO VISIBILITY

NCZ015>017-031-032-045>047-102-103-200900-
NORTH COAST

CITY           SKY/WX    TMP DP  RH WIND       PRES   REMARKS
EDENTON        CLOUDY    49  45  85 N7        30.15S
ELIZABETH CITY LGT RAIN  53  38  56 NE17      30.16S
KITTY HAWK     DRIZZLE   49  47  90 NE10G18   30.11F
MANTEO         CLOUDY    51  47  84 NE17G26   30.12F

$$

NCZ045>047-081-094-103-104-200900-
CENTRAL COAST

CITY           SKY/WX    TMP DP  RH WIND       PRES   REMARKS
FRISCO         LGT RAIN  53  53 100 NE16G26   30.07S FOG
SWANQUARTER      N/A     54 N/A N/A NE12G22   30.06S

$$

NCZ095-097-098-100-101-200900-
SOUTHERN COAST

CITY           SKY/WX    TMP DP  RH WIND       PRES   REMARKS
BEAUFORT       CLOUDY    56  54  93 NE18G26   30.04S
CEDAR ISLAND     N/A     57 N/A N/A N16G36    30.09S
JACKSONVILLE   CLOUDY    54  54 100 N15       30.07R
NEWPORT          N/A     55  54  94 N13G20      N/A
PINEY ISLAND   LGT RAIN  58  57  97 NE21G26   30.06S FOG
WILMINGTON     CLOUDY    54  51  90 N16       30.05R


$$

NCZ011>013-027>030-043-044-078>080-089-090>093-098-200900-
COASTAL PLAIN

CITY           SKY/WX    TMP DP  RH WIND       PRES   REMARKS
AHOSKIE        CLOUDY    50  38  64 N12G17    30.18F
CLINTON        CLOUDY    51  46  81 N14G22    30.11S
ELIZABETHTOWN  CLOUDY    50  49  97 CALM      30.09S
GOLDSBORO      CLOUDY    49  45  85 NE10      30.12F
GREENVILLE     LGT RAIN  46  45  93 N5        30.17S
HAVELOCK       CLOUDY    55  52  89 N18       30.09R
KENANSVILLE    CLOUDY    50  43  78 NE9G18    30.12R
KINSTON        CLOUDY    49  44  83 N13G22    30.14S
NEW BERN       LGT RAIN  53  50  89 NE13G21   30.11R FOG
RICHLANDS      CLOUDY    52  52 100 N17G23    30.10R
ROANOKE RAPIDS NOT AVBL
ROCKY MOUNT    MOCLDY    51  39  63 N10       30.17F
WASHINGTON     CLOUDY    48  44  85 N9        30.14S
WHITEVILLE     CLOUDY    53  49  87 NE9G21    30.06S

$$

AMZ130-135-150-152-154-156-158-170-250-252-270-ANZ085-086-088-633-658-670-200900-
MARINE OBSERVATIONS

STATION/POSITION TIME  TEMP    WIND        PRES    WAVE   SWELL
                       AIR SEA DIR/SP/G            HT/PER HT/PER
                 (UTC) (F)     (DEG/KT/KT) (MB)    (FT/S) (FT/S)
CHESAPEAKE LIGHT 0700   50      40/ 23/ 24 1022.9
BUOY 44014       0800   52 48   30/ 21/ 25 1020.4    8/ 8   5/ 8
DUCK             0800   51 49   30/ 24/ 27 1019.4
2E DUCK          0800      47                N/A     7/ 8   2/11
OREGON INLET     0800   51 51   10/ 16/ 21 1019.2
BUOY 44095       0800      48                N/A     9/ 9   2/11
HATTERAS CG      0800   55 56   30/ 15/ 22 1018.0
DIAMOND BUOY     0700   63 75   20/ 27/ 35 1015.7   14/11  10/11
CAPE LOOKOUT     0700   57      20/ 24/ 27 1016.8
BEAUFORT LAB     0800   56 57   30/ 18/ 24 1016.7
30 SE NEW RIVER  0800   60 65   30/ 29/ 37 1014.7    9/ 6   3/11
5 SE WRIGHTSVILL 0700   57 59   40/ 23/ 29 1015.9
FRYING PAN BUOY  0800   61 68   40/ 35/ 43 1011.6   10/ 8   3/11
BUOY 41001       NOT AVBL
BUOY 41002       NOT AVBL
BUOY 41004       NOT AVBL

$$



USA.gov is the U.S. government's official web portal to all federal, state and local government web resources and services.